Regional Weather Roundup
Issued by NWS

Home | Current Version | Previous Version | Text Only | Print | Product List | Glossary Off
Versions: 1 2 3 4 5 6 7 8 9 10 11 12 13 14 15 16 17 18 19 20 21 22 23 24 25 26 27 28 29 30 31 32 33 34 35 36 37 38 39 40 41 42 43 44 45 46 47 48 49 50

000
ASUS45 KBOU 221507
RWRCO

WEATHER ROUNDUP FOR COLORADO
NATIONAL WEATHER SERVICE DENVER/BOULDER CO
900 AM MDT FRI MAY 22 2015

NOTE: "FAIR" INDICATES FEW OR NO CLOUDS BELOW 12000 FEET WITH NO
SIGNIFICANT WEATHER AND/OR OBSTRUCTIONS TO VISIBILITY.

COZ001>005-013-030-031-221600-
...NORTHWEST COLORADO...

CITY           SKY/WX    TMP DP  RH WIND       PRES   REMARKS
CRAIG          LGT RAIN  45  41  86 SW20      30.04R
HAYDEN         CLOUDY    45  39  81 W14       30.04R
MEEKER         LGT RAIN  45  40  82 SE6       30.06S
MOUNT WERNER   NOT AVBL
STEAMBOAT SPGS CLOUDY    42  40  91 E3        30.04R
WALDEN         CLOUDY    39  36  87 S3        30.06R
$$

COZ006>008-011-221600-
...WEST CENTRAL VALLEYS...

CITY           SKY/WX    TMP DP  RH WIND       PRES   REMARKS
GRAND JUNCTION CLOUDY    53  46  77 E9        29.98F
MONTROSE       MOSUNNY   54  41  61 CALM      30.04S
EAGLE          CLOUDY    43  41  93 NE6       30.09S
RIFLE          LGT RAIN  49  43  80 NE5       30.03S
DELTA          MOSUNNY   57  45  64 NE6       30.02S
NUCLA          MOSUNNY   52  43  71 N3        30.06S
$$

COZ017>023-064>068-221600-
...SOUTHWEST COLORADO...

CITY           SKY/WX    TMP DP  RH WIND       PRES   REMARKS
DURANGO        MOSUNNY   49  40  71 E8        30.11S
CORTEZ         SUNNY     58  39  49 S12       30.04S
PAGOSA SPRINGS PTSUNNY   43  39  88 NE5       30.17S
TELLURIDE      PTSUNNY   43  30  61 CALM      30.16S
WOLF CREEK PAS NOT AVBL
$$

COZ009-010-012-014-032>034-037-058>063-221600-
...CENTRAL COLORADO...

CITY           SKY/WX    TMP DP  RH WIND       PRES   REMARKS
ASPEN          CLOUDY    45  38  76 N3        30.06F
BUENA VISTA    PTSUNNY   42  38  85 CALM      30.07S
COPPER MTN     HAZE      34  28  80 W9        30.19R VSB 1/2 WCI  26
BERTHOUD PASS  CLOUDY    25  18  74 W26G38    30.17S HAZE    WCI   9
COTTONWOOD PAS FOG       37  36  93 E7        30.12R VSB 1/2
GUNNISON       MOSUNNY   46  36  66 E5        30.11S
KREMMLING      CLOUDY    41  34  75 W8G22     30.07R
LEADVILLE      CLOUDY    37  31  78 N8        30.10F
SALIDA         PTSUNNY   49  42  75 S10G16    30.13R
SUNLIGHT       CLOUDY    36  34  93 CALM      30.18S
WILKERSON PASS FOG       30  30 100 W9G16     30.16R VSB 1/2 WCI  22
$$

COZ069>075-221600-
...SAN LUIS VALLEY/SANGRE DE CRISTO MOUNTAINS...

CITY           SKY/WX    TMP DP  RH WIND       PRES   REMARKS
ALAMOSA        SUNNY     50  37  61 S13       30.10S
LA VETA PASS   PTSUNNY  N/A N/A N/A MISG      30.14R FOG
SAGUACHE       CLOUDY    43  36  75 SE3       30.13R
$$

COZ035-036-038>040-221600-
...NORTHERN COLORADO FRONT RANGE...

CITY           SKY/WX    TMP DP  RH WIND       PRES   REMARKS
DENVER INTL AP LGT RAIN  48  45  89 SE13      29.99F
DMNS CITY PARK   N/A     48  47  95 NW2       29.99S
AURORA         LGT RAIN  48  47  96 S6        30.00S
FRONT RANGE AP LGT RAIN  50  48  93 SE12      30.00F
ERIE MUNI ARPT RAIN      48  46  95 CALM      30.00S
BOULDER MUN AP LGT RAIN  46  46 100 N6        30.00S
CENTENNIAL     LGT RAIN  47  45  93 W9        30.00R
BROOMFIELD     LGT RAIN  46  46 100 CALM      30.01R
FORT COLLINS   CLOUDY    46  45  93 E9        30.03S
LONGMONT       LGT RAIN  50  48  92 CALM      30.02S
$$

COZ041-046-047-076>085-087-088-221600-
...PIKES PEAK/PALMER DIVIDE AND SOUTHERN FOOTHILLS...

CITY           SKY/WX    TMP DP  RH WIND       PRES   REMARKS
COLO. SPRINGS  CLOUDY    46  43  89 S7        30.03R
A. F. ACADEMY  CLOUDY    45  44  99 S5        30.02R
ELLICOTT       NOT AVBL
FALCON         CLOUDY    46  42  86 S3        30.04R
FORT CARSON    CLOUDY    46  45  93 SE7       30.00S
LIMON          CLOUDY    46  45  96 SE9       30.01F
MONUMENT HILL  NOT AVBL
TRINIDAD       SUNNY     56  43  61 MISG      30.02R
$$

COZ042>045-048>051-090-091-221600-
...NORTHEAST COLORADO...

CITY           SKY/WX    TMP DP  RH WIND       PRES   REMARKS
GREELEY ARPT   CLOUDY    46  45  93 E16       30.02S
AKRON          LGT RAIN  45  45 100 SE13      30.05F
BURLINGTON     LGT RAIN  47  45  93 SE22G31   30.04S FOG
WRAY           LGT RAIN N/A N/A N/A E12G18    30.09F
STERLING       LGT RAIN  46  46 100 SE9       30.06S
HOLYOKE        NOT AVBL
FORT MORGAN    LGT RAIN  46  45  94 E15G22    30.05S
$$

COZ086-089-092>099-221600-
...SOUTHEAST COLORADO...

CITY           SKY/WX    TMP DP  RH WIND       PRES   REMARKS
PUEBLO         PTSUNNY   51  47  86 CALM      30.00R
LA JUNTA       MOSUNNY   56  47  71 SW13      29.99R
LAMAR          PTSUNNY   56  47  71 S26G32    29.99F
SPRINGFIELD      N/A     50  47  89 S21G32    30.06R
$$


USA.gov is the U.S. government's official web portal to all federal, state and local government web resources and services.